Weather History for KIER - November, 2012

Change the Weather History Date:

Tuesday, November 20, 2012

  Actual Average Record
Temperature  
Mean Temperature 58 °F -  
Max Temperature 76 °F 68 °F 86 °F (1933)
Min Temperature 41 °F 46 °F 21 °F (1951)
Degree Days  
Heating Degree Days 6    
Growing Degree Days 8 (Base 50)    
Moisture  
Dew Point 49 °F    
Average Humidity 75    
Maximum Humidity 99    
Minimum Humidity 41    
Precipitation  
Precipitation 0.00 in - - ()
Sea Level Pressure  
Sea Level Pressure 30.18 in    
Wind  
Wind Speed 1 mph (NNW)    
Max Wind Speed 7 mph    
Max Gust Speed -    
Visibility 10 miles    
Events      
Averages and records for this station are not official NWS values.
T = Trace of Precipitation, MM = Missing Value Source: NWS Daily Summary

Daily Weather History Graph

Daily Weather History Graph

Search for Another Location

Airport or City:

Trip Planner

Search our weather history database for the weather conditions in past years. The results will help you decide how hot, cold, wet, or windy it might be!

Date:

Astronomy

Nov. 20, 2012 Rise Set
Actual Time 6:45 AM CST 5:10 PM CST
Civil Twilight 6:19 AM CST 5:36 PM CST
Nautical Twilight 5:49 AM CST 6:06 PM CST
Astronomical Twilight 5:20 AM CST 6:35 PM CST
Moon 12:32 PM CST (11/20) No Moon Set
Length of Visible Light 11h 17m
Length of Day
10h 25m
First Quarter, 51% of the Moon is Illuminated
Nov 20
First Quarter
Nov 28
Full
Dec 6
Last Quarter
Dec 13
New
Dec 19
First Quarter

Hourly Weather History & Observations

Time (CST) Temp. Dew Point Humidity Pressure Visibility Wind Dir Wind Speed Gust Speed Precip Events Conditions
12:15 AM 42.8 °F 41.0 °F 93% 30.19 in 10.0 mi Calm Calm - N/A   Clear
12:35 AM 41.9 °F 41.0 °F 97% 30.19 in 10.0 mi Calm Calm - N/A   Clear
12:55 AM 41.9 °F 40.8 °F 96% 30.19 in 10.0 mi Calm Calm - N/A   Clear
1:15 AM 41.4 °F 40.1 °F 95% 30.19 in 10.0 mi Calm Calm - N/A   Clear
1:35 AM 41.7 °F 40.3 °F 95% 30.19 in 10.0 mi Calm Calm - N/A   Scattered Clouds
1:55 AM 42.8 °F 41.2 °F 94% 30.19 in 10.0 mi Calm Calm - N/A   Mostly Cloudy
2:15 AM 45.1 °F 44.2 °F 97% 30.19 in 10.0 mi Calm Calm - N/A   Overcast
2:35 AM 46.4 °F 44.1 °F 92% 30.19 in 10.0 mi Calm Calm - N/A   Overcast
6:15 AM 49.1 °F 44.8 °F 85% 30.20 in 10.0 mi Calm Calm - N/A   Overcast
6:35 AM 49.1 °F 45.7 °F 88% 30.20 in 10.0 mi Calm Calm - N/A   Overcast
6:55 AM 49.1 °F 45.9 °F 89% 30.21 in 10.0 mi Calm Calm - N/A   Mostly Cloudy
7:15 AM 49.5 °F 45.7 °F 87% 30.22 in 10.0 mi Calm Calm - N/A   Overcast
7:35 AM 50.4 °F 45.7 °F 84% 30.22 in 10.0 mi Calm Calm - N/A   Overcast
7:55 AM 51.1 °F 46.0 °F 83% 30.23 in 10.0 mi Calm Calm - N/A   Overcast
8:15 AM 51.3 °F 46.0 °F 82% 30.23 in 10.0 mi Calm Calm - N/A   Mostly Cloudy
8:35 AM 55.4 °F 46.8 °F 73% 30.24 in 10.0 mi Calm Calm - N/A   Scattered Clouds
8:55 AM 58.6 °F 47.1 °F 66% 30.24 in 10.0 mi Calm Calm - N/A   Clear
9:15 AM 58.3 °F 48.2 °F 69% 30.24 in 10.0 mi Calm Calm - N/A   Mostly Cloudy
9:35 AM 62.8 °F 50.2 °F 63% 30.25 in 10.0 mi Calm Calm - N/A   Overcast
9:55 AM 63.5 °F 52.0 °F 66% 30.25 in 10.0 mi Calm Calm - N/A   Overcast
10:15 AM 64.4 °F 53.1 °F 67% 30.24 in 10.0 mi Calm Calm - N/A   Overcast
10:35 AM 68.0 °F 54.5 °F 62% 30.23 in 10.0 mi North 4.6 mph - N/A   Overcast
10:55 AM 68.0 °F 55.0 °F 63% 30.22 in 10.0 mi North 4.6 mph - N/A   Overcast
11:15 AM 68.9 °F 54.9 °F 61% 30.21 in 10.0 mi North 4.6 mph - N/A   Overcast
11:35 AM 69.3 °F 55.0 °F 60% 30.20 in 10.0 mi North 4.6 mph - N/A   Overcast
11:55 AM 72.0 °F 54.9 °F 55% 30.20 in 10.0 mi North 4.6 mph - N/A   Overcast
12:15 PM 72.5 °F 53.2 °F 51% 30.19 in 10.0 mi North 4.6 mph - N/A   Overcast
12:35 PM 73.2 °F 53.4 °F 50% 30.18 in 10.0 mi North 6.9 mph - N/A   Overcast
12:55 PM 72.7 °F 52.9 °F 50% 30.17 in 10.0 mi NW 3.5 mph - N/A   Overcast
1:15 PM 74.3 °F 52.7 °F 47% 30.16 in 10.0 mi NNW 4.6 mph - N/A   Scattered Clouds
1:35 PM 76.5 °F 52.9 °F 44% 30.15 in 10.0 mi WNW 3.5 mph - N/A   Mostly Cloudy
1:55 PM 75.6 °F 51.4 °F 43% 30.15 in 10.0 mi NW 3.5 mph - N/A   Scattered Clouds
2:15 PM 75.9 °F 50.7 °F 41% 30.15 in 10.0 mi North 4.6 mph - N/A   Clear
2:35 PM 76.1 °F 51.1 °F 41% 30.14 in 10.0 mi NNW 4.6 mph - N/A   Clear
2:55 PM 75.7 °F 52.2 °F 44% 30.14 in 10.0 mi North 3.5 mph - N/A   Clear
3:15 PM 75.6 °F 52.2 °F 44% 30.13 in 10.0 mi Calm Calm - N/A   Clear
3:35 PM 75.2 °F 52.3 °F 45% 30.13 in 10.0 mi NNW 3.5 mph - N/A   Clear
3:55 PM 74.7 °F 52.0 °F 45% 30.13 in 10.0 mi NW 4.6 mph - N/A   Clear
4:15 PM 73.8 °F 51.6 °F 46% 30.14 in 10.0 mi NNW 3.5 mph - N/A   Clear
4:35 PM 72.0 °F 52.3 °F 50% 30.14 in 10.0 mi Calm Calm - N/A   Clear
4:55 PM 69.6 °F 51.3 °F 52% 30.13 in 10.0 mi Calm Calm - N/A   Clear
5:15 PM 66.0 °F 52.3 °F 61% 30.14 in 10.0 mi Calm Calm - N/A   Clear
5:35 PM 61.7 °F 53.1 °F 73% 30.14 in 10.0 mi Calm Calm - N/A   Clear
5:55 PM 58.3 °F 51.6 °F 78% 30.14 in 10.0 mi Calm Calm - N/A   Clear
6:15 PM 57.4 °F 51.8 °F 82% 30.14 in 10.0 mi Calm Calm - N/A   Clear
6:35 PM 56.5 °F 52.3 °F 86% 30.15 in 10.0 mi Calm Calm - N/A   Clear
6:55 PM 54.9 °F 51.3 °F 88% 30.16 in 10.0 mi Calm Calm - N/A   Clear
7:15 PM 53.8 °F 51.6 °F 92% 30.16 in 10.0 mi Calm Calm - N/A   Clear
7:35 PM 53.6 °F 51.4 °F 92% 30.17 in 10.0 mi Calm Calm - N/A   Clear
7:55 PM 52.2 °F 50.7 °F 95% 30.18 in 10.0 mi Calm Calm - N/A   Clear
8:15 PM 51.8 °F 50.2 °F 94% 30.18 in 10.0 mi Calm Calm - N/A   Clear
8:35 PM 51.1 °F 49.8 °F 95% 30.19 in 10.0 mi Calm Calm - N/A   Clear
8:55 PM 50.4 °F 49.5 °F 97% 30.19 in 10.0 mi Calm Calm - N/A   Clear
9:15 PM 50.0 °F 49.6 °F 99% 30.19 in 10.0 mi Calm Calm - N/A   Clear
9:35 PM 50.0 °F 49.5 °F 98% 30.19 in 10.0 mi Calm Calm - N/A   Clear
9:55 PM 49.3 °F 48.9 °F 99% 30.19 in 10.0 mi Calm Calm - N/A   Clear
10:15 PM 49.1 °F 48.4 °F 97% 30.19 in 10.0 mi Calm Calm - N/A   Clear
10:35 PM 48.4 °F 47.7 °F 97% 30.19 in 10.0 mi Calm Calm - N/A   Clear
10:55 PM 48.2 °F 48.0 °F 99% 30.19 in 7.0 mi Calm Calm - N/A   Clear
11:15 PM 48.2 °F 48.0 °F 99% 30.19 in 7.0 mi Calm Calm - N/A   Clear
11:35 PM 48.2 °F 48.0 °F 99% 30.19 in 10.0 mi Calm Calm - N/A   Clear
11:55 PM 47.5 °F 47.1 °F 99% 30.19 in 10.0 mi Calm Calm - N/A   Clear